• In Belarus
  • List of Countries
  • For 7 days
  • Water Temperature
  • Satellite Maps
  • Weather Map
  • Weather Widgets
  • user-avatar
    Login

    Hourly Weather Havana

    Today, 18 February, Monday

    Time Temperature Precipitation Wind Pressure Humidity
    00:00 +26°C° 0 mm 5 mps 761 mmHg 91%
    01:00 +25°C° 0 mm 5 mps 761 mmHg 93%
    02:00 +25°C° 0 mm 5 mps 761 mmHg 93%
    03:00 +25°C° 0 mm 5 mps 761 mmHg 94%
    04:00 +25°C° 0 mm 4 mps 761 mmHg 95%
    05:00 +25°C° 0 mm 4 mps 761 mmHg 95%
    06:00 +25°C° 0 mm 4 mps 762 mmHg 95%
    07:00 +25°C° 0 mm 4 mps 762 mmHg 95%
    08:00 +26°C° 0 mm 4 mps 762 mmHg 86%
    09:00 +28°C° 0 mm 5 mps 763 mmHg 77%
    10:00 +30°C° 0 mm 5 mps 763 mmHg 68%
    11:00 +32°C° 0 mm 5 mps 763 mmHg 63%
    12:00 +33°C° 0 mm 4 mps 763 mmHg 59%
    13:00 +34°C° 0 mm 4 mps 763 mmHg 54%
    14:00 +34°C° 0 mm 4 mps 762 mmHg 54%
    15:00 +34°C° 0 mm 4 mps 762 mmHg 55%
    16:00 +33°C° 0 mm 3 mps 762 mmHg 55%
    17:00 +31°C° 0.1 mm 3 mps 762 mmHg 63%
    18:00 +29°C° 0.1 mm 3 mps 762 mmHg 71%
    19:00 +27°C° 0.1 mm 2 mps 763 mmHg 79%
    20:00 +27°C° 0.1 mm 2 mps 763 mmHg 82%
    21:00 +27°C° 0.1 mm 2 mps 763 mmHg 85%
    22:00 +26°C° 0.1 mm 2 mps 764 mmHg 87%
    23:00 +26°C° 0.1 mm 2 mps 764 mmHg 88%

    Tomorrow, 19 February, Tuesday

    Time Temperature Precipitation Wind Pressure Humidity
    00:00 +26°C° 0.1 mm 2 mps 764 mmHg 89%
    01:00 +25°C° 0.1 mm 2 mps 764 mmHg 89%
    02:00 +25°C° 0 mm 3 mps 763 mmHg 89%
    03:00 +25°C° 0 mm 3 mps 763 mmHg 89%
    04:00 +25°C° 0 mm 4 mps 763 mmHg 90%
    05:00 +25°C° 0 mm 4 mps 763 mmHg 89%
    06:00 +23°C° 0 mm 5 mps 763 mmHg 89%
    07:00 +23°C° 0 mm 6 mps 763 mmHg 89%
    08:00 +26°C° 0 mm 6 mps 764 mmHg 81%
    09:00 +28°C° 0 mm 6 mps 764 mmHg 74%
    10:00 +29°C° 0 mm 6 mps 765 mmHg 66%
    11:00 +32°C° 0 mm 6 mps 764 mmHg 60%
    12:00 +33°C° 0 mm 6 mps 764 mmHg 53%
    13:00 +34°C° 0 mm 6 mps 764 mmHg 47%
    14:00 +34°C° 0 mm 6 mps 763 mmHg 49%
    15:00 +33°C° 0 mm 6 mps 762 mmHg 51%
    16:00 +33°C° 0 mm 6 mps 762 mmHg 52%
    17:00 +30°C° 0.1 mm 6 mps 762 mmHg 62%
    18:00 +29°C° 0.1 mm 6 mps 762 mmHg 71%
    19:00 +27°C° 0.1 mm 6 mps 762 mmHg 80%
    20:00 +27°C° 0 mm 6 mps 762 mmHg 81%
    21:00 +26°C° 0 mm 6 mps 763 mmHg 81%
    22:00 +26°C° 0 mm 6 mps 763 mmHg 82%
    23:00 +26°C° 0 mm 6 mps 763 mmHg 83%

    Day after tomorrow, 20 February, Wednesday

    Time Temperature Precipitation Wind Pressure Humidity
    00:00 +24°C° 0 mm 6 mps 763 mmHg 84%
    01:00 +24°C° 0 mm 6 mps 762 mmHg 86%
    02:00 +24°C° 0 mm 6 mps 762 mmHg 86%
    03:00 +24°C° 0 mm 7 mps 762 mmHg 86%
    04:00 +24°C° 0 mm 7 mps 761 mmHg 86%
    05:00 +23°C° 0 mm 7 mps 761 mmHg 87%
    06:00 +23°C° 0 mm 7 mps 762 mmHg 88%
    07:00 +23°C° 0 mm 6 mps 762 mmHg 89%
    08:00 +24°C° 0 mm 6 mps 762 mmHg 82%
    09:00 +27°C° 0 mm 6 mps 763 mmHg 75%
    10:00 +28°C° 0 mm 6 mps 763 mmHg 68%
    11:00 +30°C° 0 mm 5 mps 763 mmHg 61%
    12:00 +32°C° 0 mm 5 mps 762 mmHg 55%
    13:00 +34°C° 0 mm 4 mps 762 mmHg 49%
    14:00 +34°C° 0 mm 4 mps 761 mmHg 48%
    15:00 +34°C° 0 mm 4 mps 761 mmHg 47%
    16:00 +34°C° 0 mm 4 mps 760 mmHg 47%
    17:00 +32°C° 0 mm 4 mps 760 mmHg 56%
    18:00 +29°C° 0 mm 3 mps 760 mmHg 65%
    19:00 +27°C° 0 mm 3 mps 761 mmHg 75%
    20:00 +26°C° 0 mm 3 mps 761 mmHg 78%
    21:00 +25°C° 0 mm 2 mps 762 mmHg 82%
    22:00 +25°C° 0 mm 2 mps 762 mmHg 85%
    23:00 +25°C° 0 mm 2 mps 762 mmHg 84%

    21 February, Thursday

    Time Temperature Precipitation Wind Pressure Humidity
    00:00 +24°C° 0 mm 3 mps 762 mmHg 83%
    01:00 +24°C° 0 mm 3 mps 762 mmHg 82%
    02:00 +24°C° 0 mm 3 mps 762 mmHg 84%
    03:00 +24°C° 0 mm 3 mps 762 mmHg 86%
    04:00 +22°C° 0 mm 3 mps 761 mmHg 88%
    05:00 +22°C° 0 mm 4 mps 762 mmHg 90%
    06:00 +22°C° 0 mm 4 mps 762 mmHg 91%
    07:00 +22°C° 0 mm 4 mps 762 mmHg 92%
    08:00 +25°C° 0 mm 4 mps 762 mmHg 82%
    09:00 +27°C° 0 mm 4 mps 763 mmHg 72%
    10:00 +30°C° 0 mm 4 mps 763 mmHg 61%
    11:00 +32°C° 0 mm 4 mps 763 mmHg 55%
    12:00 +33°C° 0 mm 3 mps 763 mmHg 49%
    13:00 +35°C° 0 mm 3 mps 762 mmHg 43%
    14:00 +34°C° 0.1 mm 3 mps 762 mmHg 48%
    15:00 +33°C° 0.1 mm 3 mps 761 mmHg 53%
    16:00 +31°C° 0.1 mm 3 mps 761 mmHg 58%
    17:00 +29°C° 0.2 mm 3 mps 761 mmHg 65%
    18:00 +28°C° 0.2 mm 3 mps 761 mmHg 71%
    19:00 +27°C° 0.2 mm 3 mps 761 mmHg 78%
    20:00 +26°C° 0 mm 3 mps 762 mmHg 80%
    21:00 +26°C° 0 mm 3 mps 762 mmHg 82%
    22:00 +26°C° 0 mm 3 mps 763 mmHg 84%
    23:00 +25°C° 0 mm 3 mps 763 mmHg 85%

    22 February, Friday

    Time Temperature Precipitation Wind Pressure Humidity
    00:00 +25°C° 0 mm 3 mps 762 mmHg 86%
    01:00 +25°C° 0 mm 4 mps 762 mmHg 87%
    02:00 +23°C° 0 mm 4 mps 762 mmHg 87%
    03:00 +23°C° 0 mm 4 mps 762 mmHg 87%
    04:00 +23°C° 0 mm 4 mps 761 mmHg 88%
    05:00 +23°C° 0 mm 4 mps 762 mmHg 88%
    06:00 +22°C° 0 mm 4 mps 762 mmHg 88%
    07:00 +22°C° 0 mm 4 mps 763 mmHg 88%
    08:00 +25°C° 0 mm 4 mps 763 mmHg 80%
    09:00 +27°C° 0 mm 4 mps 763 mmHg 72%
    10:00 +29°C° 0 mm 4 mps 764 mmHg 64%
    11:00 +30°C° 0 mm 4 mps 764 mmHg 57%
    12:00 +33°C° 0 mm 3 mps 763 mmHg 51%
    13:00 +34°C° 0 mm 3 mps 763 mmHg 45%
    14:00 +34°C° 0 mm 4 mps 763 mmHg 47%
    15:00 +34°C° 0 mm 4 mps 762 mmHg 48%
    16:00 +34°C° 0 mm 5 mps 762 mmHg 49%
    17:00 +32°C° 0.1 mm 5 mps 762 mmHg 59%
    18:00 +29°C° 0.1 mm 5 mps 762 mmHg 68%
    19:00 +27°C° 0.1 mm 5 mps 762 mmHg 78%
    20:00 +27°C° 0 mm 5 mps 763 mmHg 78%
    21:00 +27°C° 0 mm 5 mps 763 mmHg 79%
    22:00 +26°C° 0 mm 5 mps 763 mmHg 80%
    23:00 +26°C° 0 mm 6 mps 763 mmHg 81%

    23 February, Saturday

    Time Temperature Precipitation Wind Pressure Humidity
    00:00 +26°C° 0 mm 6 mps 763 mmHg 82%
    01:00 +24°C° 0 mm 6 mps 763 mmHg 83%
    02:00 +25°C° 0 mm 5 mps 762 mmHg 84%
    03:00 +25°C° 0 mm 5 mps 762 mmHg 86%
    04:00 +23°C° 0 mm 5 mps 762 mmHg 87%
    05:00 +23°C° 0 mm 5 mps 762 mmHg 89%
    06:00 +23°C° 0 mm 5 mps 763 mmHg 91%
    07:00 +23°C° 0 mm 4 mps 763 mmHg 92%
    08:00 +26°C° 0 mm 4 mps 763 mmHg 83%
    09:00 +28°C° 0 mm 4 mps 764 mmHg 73%
    10:00 +30°C° 0 mm 3 mps 764 mmHg 64%
    11:00 +31°C° 0 mm 3 mps 763 mmHg 57%
    12:00 +33°C° 0 mm 3 mps 763 mmHg 50%
    13:00 +35°C° 0 mm 3 mps 763 mmHg 43%
    14:00 +34°C° 0 mm 3 mps 762 mmHg 45%
    15:00 +34°C° 0 mm 3 mps 762 mmHg 47%
    16:00 +34°C° 0 mm 3 mps 761 mmHg 48%
    17:00 +31°C° 0 mm 3 mps 761 mmHg 57%
    18:00 +29°C° 0 mm 3 mps 762 mmHg 65%
    19:00 +27°C° 0 mm 2 mps 762 mmHg 73%
    20:00 +27°C° 0 mm 2 mps 762 mmHg 78%
    21:00 +26°C° 0 mm 2 mps 762 mmHg 82%
    22:00 +25°C° 0 mm 1 mps 763 mmHg 87%
    23:00 +25°C° 0 mm 1 mps 762 mmHg 87%
    Show more